    Orbital elements:
    2017 VD                                             PHA, Earth MOID = 0.0186 AU
    Epoch 2017 Sept. 4.0 TT = JDT 2458000.5                 MPC
    M 356.10498              (2000.0)            P               Q
    n   0.25164358     Peri.   71.05143     +0.44627212     +0.88878563
    a   2.4847278      Node   225.91621     -0.86599060     +0.39949315
    e   0.8158184      Incl.    8.35763     -0.22561356     +0.22464489
    P   3.92           H   21.0           G   0.15           U   7
    Residuals in seconds of arc
    171104 T08  0.2+  0.6-    171105 B49  0.3-  0.4-    171106 G48  0.4+  0.1+
    171104 T08  0.1-  0.3-    171105 B49  0.3-  0.5-    171106 J95  0.1-  0.0
    171104 T08  0.0   0.1-    171105 B49  0.2-  0.4-    171106 H06  0.3-  0.2-
    171104 T08  0.2+  0.4-    171105 Z80  0.1+  0.2+    171106 H06  0.3-  0.0
    171104 J95  0.1-  0.0     171105 Z80  0.8+  0.5+    171106 H06  0.4-  0.2-
    171104 J95  0.1-  0.1+    171105 Z80  0.3-  0.1+    171106 H06  0.1-  0.1-
    171104 J95  0.2+  0.0     171105 Z80  0.1-  0.2+    171106 T05  0.2-  0.0
    171104 J95  0.2-  0.0     171105 Z80  0.3-  0.3+    171106 T05  0.1-  0.0
    171105 J95  0.0   0.2+    171105 Z80  0.1+  0.2+    171106 T05  0.3-  0.0
    171105 J95  0.1+  0.1+    171105 Z80  0.0   0.6-    171106 T05  0.2-  0.1-
    171105 J95  0.1+  0.2+    171105 Z80  0.2+  0.3-    171106 Z80  0.1+  0.5+
    171105 J95  0.1-  0.2+    171105 Z80  0.6-  0.1+    171106 Z80  0.5-  0.0
    171105 926  0.1-  0.1+    171105 Z80  0.1-  0.1+    171106 Z80  0.5-  0.0
    171105 926  0.4-  0.5+    171105 J69  0.6+  0.3-    171106 Z80  0.0   0.3-
    171105 926  0.1-  0.0     171105 J69  0.6+  0.3-    171106 Z80  0.4+  0.3+
    171105 926  0.2-  0.1+    171105 J69  0.7+  0.2-    171106 C23  0.6+  0.4+
    171105 926  0.2-  0.1+    171105 J69  0.6+  0.2-    171106 C23  0.1-  0.1+
    171105 926  0.2-  0.2+    171105 J69  0.7+  0.2-    171106 C23  0.1+  0.1-
    171105 L04  0.0   0.3-    171105 J69  0.6+  0.2-    171106 C23  0.4-  0.3+
    171105 L04  0.1-  0.2-    171106 J95  0.1-  0.1-    171106 C23  0.8-  0.1+
    171105 L04  0.1-  0.3-    171106 J95  0.2-  0.2+    171106 970  0.2+  0.3+
    171105 L04  0.1+  0.3-    171106 J95  0.3-  0.0     171106 970  0.2+  0.3+
    171105 B49  0.3-  0.4-    171106 G48  2.1+  1.4-    171106 970  0.2+  0.2+
    171105 B49  0.1-  0.1-    171106 G48  1.3+  0.5-
    171105 B49  0.3-  0.4-    171106 G48  0.5+  0.1-
    
    Ephemeris:
    2017 VD                  a,e,i = 2.48, 0.82, 8                   q = 0.4576
    Date    TT    R. A. (2000) Decl.     Delta      r     Elong.  Phase     V
    2017 10 07    14 14 46.5 -04 53 39   0.4508  0.6008    21.0   143.4    25.5
    ...
    2017 10 22    14 38 43.2 -01 54 56   0.1797  0.8239    15.9   160.7    28.1
    ...
    2017 10 30    15 48 16.3 +07 32 39   0.05476 0.9466    31.1   147.2    22.5
    ...
    2017 11 05    00 26 16.5 +17 55 29   0.05338 1.0371   147.9    30.6    16.0
    2017 11 06    00 50 56.0 +15 21 43   0.06782 1.0520   152.7    25.6    16.4
    2017 11 07    01 06 31.7 +13 37 28   0.08285 1.0669   155.3    22.8    16.8
    ...
    2017 11 13    01 42 25.2 +09 26 54   0.1775  1.1547   156.6    19.9    18.6
    ...
    2017 11 21    01 56 44.0 +08 05 51   0.3100  1.2683   151.2    22.1    20.0
    ...
    2017 12 06    02 10 28.4 +07 58 05   0.5767  1.4706   139.1    26.0    21.8
    
    A. U. Tomatic                (C) Copyright 2017 MPC           M.P.E.C. 2017-V23
    

    Read MPEC 2017-V22 Read MPEC 2017-V24


    MPEC number:

    Enter an MPEC number in one of the following forms:

    • 1997-B01 (the full form)
    • J97B01 (the packed version of the full form)
    • B01 (the abbreviated form)